This is the latest recevied weather packets stored in our database for station/object F4FSZ-11. If no packets are shown the sender has not sent any weather packets the latest 10 day(s).
| Time | Temp. | Humidity | Pressure | Rain* | Wind** | Luminosity | Snow |
|---|---|---|---|---|---|---|---|
| 1777969133 | 17.22° C | 86% | 1003.2 hPa | - | - | - | - |
| 1777968233 | 16.67° C | 90% | 1003.3 hPa | - | - | - | - |
| 1777967333 | 16.11° C | 89% | 1003.3 hPa | - | - | - | - |
| 1777966433 | 16.11° C | 91% | 1003.4 hPa | - | - | - | - |
| 1777965533 | 16.67° C | 88% | 1003.5 hPa | - | - | - | - |
| 1777964633 | 15° C | 92% | 1003.6 hPa | - | - | - | - |
| 1777963733 | 15° C | 98% | 1003.8 hPa | - | - | - | - |
| 1777962833 | 13.89° C | 100% | 1003.8 hPa | - | - | - | - |
| 1777961933 | 14.44° C | 100% | 1004 hPa | - | - | - | - |
| 1777961033 | 13.33° C | 100% | 1004 hPa | - | - | - | - |
| 1777960133 | 12.78° C | 100% | 1004.2 hPa | - | - | - | - |
| 1777959233 | 12.22° C | 100% | 1004.2 hPa | - | - | - | - |
| 1777958333 | 11.67° C | 100% | 1004.3 hPa | - | - | - | - |
| 1777957433 | 11.67° C | 100% | 1004.3 hPa | - | - | - | - |
| 1777956532 | 11.67° C | 100% | 1004.2 hPa | - | - | - | - |
| 1777955632 | 11.67° C | 100% | 1004.2 hPa | - | - | - | - |
| 1777954732 | 11.67° C | 100% | 1004.2 hPa | - | - | - | - |
| 1777953832 | 12.22° C | 100% | 1004.3 hPa | - | - | - | - |
| 1777952932 | 11.67° C | 100% | 1004.3 hPa | - | - | - | - |
| 1777952032 | 11.67° C | 100% | 1004.2 hPa | - | - | - | - |
| 1777951132 | 11.67° C | 100% | 1004.2 hPa | - | - | - | - |
| 1777950232 | 11.67° C | 100% | 1004.1 hPa | - | - | - | - |
| 1777949332 | 11.67° C | 100% | 1004.3 hPa | - | - | - | - |
| 1777948432 | 11.67° C | 100% | 1004.4 hPa | - | - | - | - |
| 1777947532 | 12.22° C | 100% | 1004.5 hPa | - | - | - | - |
* Rain since midnight (hover to see other rain measurements)
** Current wind speed in m/s (hover to see current wind gust speed)